Change the Weather History Date:

Tuesday, January 28, 2014

  Actual Average Record
Temperature  
Mean Temperature 66 °F -  
Max Temperature 78 °F 68 °F 83 °F (1975)
Min Temperature 55 °F 42 °F 23 °F (1986)
Cooling Degree Days 2    
Growing Degree Days 16 (Base 50)    
Moisture  
Dew Point 58 °F    
Average Humidity 86    
Maximum Humidity 100    
Minimum Humidity 54    
Precipitation  
Precipitation 0.00 in - - ()
Sea Level Pressure  
Sea Level Pressure 30.01 in    
Wind  
Wind Speed 2 mph (WSW)    
Max Wind Speed 10 mph    
Max Gust Speed -    
Visibility 6 miles    
Events Fog    
Averages and records for this station are not official NWS values.
T = Trace of Precipitation, MM = Missing Value Source: NWS Daily Summary

Daily Weather History Graph

Daily Weather History Graph

Search for Another Location

Airport or City:

Trip Planner

Search our weather history database for the weather conditions in past years. The results will help you decide how hot, cold, wet, or windy it might be!

Date:

Astronomy

Jan. 28, 2014 Rise Set
Actual Time 7:17 AM EST 6:03 PM EST
Civil Twilight 6:52 AM EST 6:28 PM EST
Nautical Twilight 6:24 AM EST 6:56 PM EST
Astronomical Twilight 5:56 AM EST 7:24 PM EST
Moon 4:54 AM EST (1/28) 3:54 PM EST (1/28)
Length of Visible Light 11h 35m
Length of Day
10h 45m
Waning Crescent, 7% of the Moon is Illuminated
Jan 28
Waning Crescent
Jan 30
New
Feb 6
First Quarter
Feb 14
Full
Feb 22
Last Quarter

Hourly Weather History & Observations

Time (EST) Temp. Dew Point Humidity Pressure Visibility Wind Dir Wind Speed Gust Speed Precip Events Conditions
12:53 AM 55.9 °F 55.0 °F 97% 30.02 in 2.5 mi Calm Calm - N/A   Clear
1:03 AM 57.2 °F 55.4 °F 94% 30.01 in 6.0 mi Calm Calm - N/A   Clear
1:51 AM 57.2 °F 55.4 °F 94% 30.01 in 1.5 mi Calm Calm - N/A   Clear
1:53 AM 57.0 °F 55.9 °F 96% 30.01 in 1.5 mi Calm Calm - N/A   Clear
2:02 AM 55.4 °F 55.4 °F 100% 30.01 in 3.0 mi SSW 3.5 mph - N/A   Clear
2:33 AM 55.4 °F 55.4 °F 100% 30.01 in 1.8 mi Calm Calm - N/A   Clear
2:51 AM 55.4 °F 55.4 °F 100% 30.00 in 0.5 mi Calm Calm - N/A Fog Fog
2:53 AM 55.9 °F 55.0 °F 97% 30.00 in 0.5 mi Calm Calm - N/A Fog Fog
3:05 AM 55.4 °F 53.6 °F 94% 30.01 in 0.2 mi Calm Calm - N/A Fog Fog
3:46 AM 55.4 °F 53.6 °F 94% 30.01 in 1.5 mi Calm Calm - N/A   Scattered Clouds
3:53 AM 55.0 °F 54.0 °F 96% 30.00 in 1.2 mi Calm Calm - N/A   Scattered Clouds
3:57 AM 55.4 °F 53.6 °F 94% 30.01 in 0.8 mi Calm Calm - N/A   Mist
4:53 AM 57.0 °F 55.9 °F 96% 30.00 in 0.2 mi Calm Calm - N/A Fog Fog
5:14 AM 55.4 °F 55.4 °F 100% 30.00 in 1.2 mi Calm Calm - N/A   Scattered Clouds
5:23 AM 57.2 °F 57.2 °F 100% 30.00 in 3.0 mi Calm Calm - N/A   Partly Cloudy
5:41 AM 57.2 °F 57.2 °F 100% 30.00 in 2.5 mi South 3.5 mph - N/A   Partly Cloudy
5:51 AM 57.2 °F 57.2 °F 100% 30.01 in 4.0 mi Calm Calm - N/A   Clear
5:53 AM 57.0 °F 57.0 °F 100% 30.01 in 4.0 mi Calm Calm - N/A   Clear
6:53 AM 57.0 °F 55.9 °F 96% 30.03 in 4.0 mi South 3.5 mph - N/A   Clear
7:53 AM 57.0 °F 57.0 °F 100% 30.05 in 7.0 mi Calm Calm - N/A   Partly Cloudy
8:53 AM 61.0 °F 59.0 °F 93% 30.06 in 8.0 mi Calm Calm - N/A   Clear
9:53 AM 64.0 °F 60.1 °F 87% 30.06 in 10.0 mi SSE 3.5 mph - N/A   Clear
10:53 AM 72.0 °F 59.0 °F 64% 30.07 in 10.0 mi SSW 4.6 mph - N/A   Clear
11:53 AM 75.9 °F 60.1 °F 58% 30.06 in 10.0 mi WSW 10.4 mph - N/A   Partly Cloudy
12:53 PM 77.0 °F 60.1 °F 56% 30.02 in 10.0 mi SSW 6.9 mph - N/A   Mostly Cloudy
1:53 PM 78.1 °F 60.1 °F 54% 29.99 in 10.0 mi WSW 5.8 mph - N/A   Partly Cloudy
2:53 PM 77.0 °F 59.0 °F 54% 29.97 in 10.0 mi West 10.4 mph - N/A   Scattered Clouds
3:53 PM 78.1 °F 61.0 °F 56% 29.97 in 10.0 mi WSW 8.1 mph - N/A   Partly Cloudy
4:53 PM 75.9 °F 61.0 °F 60% 29.98 in 10.0 mi WSW 4.6 mph - N/A   Partly Cloudy
5:53 PM 73.9 °F 62.1 °F 66% 29.98 in 10.0 mi West 4.6 mph - N/A   Mostly Cloudy
6:24 PM 71.6 °F 62.6 °F 73% 29.99 in 10.0 mi NW 5.8 mph - N/A   Mostly Cloudy
6:53 PM 72.0 °F 62.1 °F 71% 29.99 in 10.0 mi WNW 6.9 mph - N/A   Overcast
7:53 PM 70.0 °F 62.1 °F 76% 30.01 in 10.0 mi WNW 4.6 mph - 0.00 in   Overcast
8:53 PM 69.1 °F 63.0 °F 81% 30.01 in 10.0 mi Calm Calm - N/A   Overcast
9:53 PM 66.0 °F 62.1 °F 87% 30.01 in 10.0 mi Calm Calm - N/A   Scattered Clouds
10:53 PM 64.0 °F 62.1 °F 93% 30.01 in 10.0 mi Calm Calm - N/A   Clear
11:53 PM 63.0 °F 61.0 °F 93% 30.01 in 7.0 mi NNE 4.6 mph - N/A   Scattered Clouds